Location: Henham
(51.9333°N, 0.2500°E)
Time: 21:53:09
(UTC+00:00)

ADEOS Rocket - Pass Details

Date: 23 October 2019
Orbit: 859 x 1306 km, 98.7° (Epoch: 13 November)

Event Time Altitude Azimuth Distance (km) Brightness Sun altitude
Rises 19:47:05 0° 15° (NNE) 4,299 6.4 -27.9°
Reaches altitude 10° 19:49:53 10° 17° (NNE) 3,305 5.8 -28.3°
Maximum altitude 19:57:35 76° 103° (ESE) 1,268 3.3 -29.4°
Enters shadow 19:59:57 47° 178° (S) 1,560 3.8 -29.8°
Exits shadow 20:06:26 - 191° (S) 3,692 5.9 -30.7°
Sets 20:07:07 0° 192° (SSW) 3,939 6.1 -30.8°
